Погода в Фергане

Погода в Фергане : погода сейчас, прогноз погоды и архив. Всё, что Вы хотите узнать о погоде в Фергане!

Поиск расширенной информации на нашем сайте:

Другие новости

Новости СМИ2

Главная страница сайта

Новости сайта

03.07.2017

Напоминаем, что на нашем специализированном сайте Метеоцентр.Азия вы можете получить высокодетализированные автоматические прогнозы погоды по пунктам России, СНГ и мира в авиационном формате (включающие направление и скорость ветра, видимость, явления погоды, количество и форму облачности, нижнюю и верхнюю границу облачности).


Погода в Фергане - сегодня

Время (UTC), дата Ветер
(°,м/с) 
Видим.   Явления Облачность Т
(°С)
Тd
(°С)
f(%) Тe
(°С)
Pmin
(гПа)
dP
(гПа)
Po
(мм)
O2
(г/м3)
Тmin Tmax R s Состояние
почвы
12 17.07.18 290 (З) 20000 м    3/1 1000 м средняя 
[Cu med, cong|Ac cast]
+36.5 +16.5 31 +50  993.5  -0.3  700  245           
15 17.07.18 тихо ()   20000 м    9/0 средняя 
[Ac cast]
+29.2 +17.2 48 +44  995.3  0.3  700  251    +37       
18 17.07.18 130 (ЮВ) н/о    ясно 
+27 +14.6 47 +37  997.3  1.3  701  254    +37       
21 17.07.18 070 (В) н/о    ясно 
+24.8 +15.2 55 +36  997.6  -0.2  701  256           
00 18.07.18 140 (ЮВ) 20000 м    ясно 
+24.2 +13.2 50 +32  999.1  1.3  702  257           
03 18.07.18 280 (З) 20000 м    ясно 
+29.8 +15.8 43 +42  998.3  0.4  702  252  +24        сухая 
06 18.07.18 тихо ()   20000 м    ясно 
+32.7 +17.4 40 +48  998  0.4  702  249  +24         
09 18.07.18 340 (С) 20000 м    ясно 
+36.2 +15.9 30 +48  996.2  -1.1  702  246           
12 18.07.18 310 (СЗ) 10 км    3/3 1000 м 
[Cu med, cong]
+37.6 +18.6 33 +56  995  -0.8  701  244           
15 18.07.18 тихо ()   20000 м    ясно 
+29.4 +22.4 66 +57  996.6  0.1  701  249    +37.7       
18 18.07.18 120 (ЮВ) н/о    ясно 
+26.2 +19.7 67 +47  998.3  0.8  702  253    +37.7       
21 18.07.18 090 (В) н/о    ясно 
+25.2 +15.3 54 +36  998.6  702  256           
00 19.07.18 110 (В) 20000 м    ясно 
+23.2 +15 60 +34  999  -0.1  702  257    +2       
03 19.07.18 120 (ЮВ) 20000 м    ясно 
+27.6 +16.4 50 +41  998.6  0.6  702  253  +23        сухая 
06 19.07.18 330 (СЗ) 20000 м    1/1 1000 м 
[Cu hum]
+34.8 +17.7 36 +51  996.8  -0.2  702  247  +23         
09 19.07.18 330 (СЗ) 10 км    9/6 1000 м средняя, верхняя 
[Cu med, cong|Ac trans|Ci fib]
+37 +18.7 34 +55  994.9  -1.4  701  244           
12 19.07.18 280 (З) 10 км    9/6 1000 м средняя, верхняя 
[Cu med, cong|Ac trans|Ci fib]
+37.6 +21.1 39 +62  993.8  -0.8  700  243           
15 19.07.18 320 (СЗ) 10 км    9/6 1000 м средняя, верхняя 
[Sc|Ac trans|Ci fib]
+33.2 +20 46 +54  995.4  0.6  701  247    +38       
18 19.07.18 140 (ЮВ) н/о    3/0 верхняя 
[Ci fib]
+28 +19.2 59 +47  996.5  0.1  701  252    +38       
21 19.07.18 140 (ЮВ) н/о    ясно 
+25.2 +19.2 69 +45  997.3  0.2  701  254           
00 20.07.18 120 (ЮВ) 10 км    3/0 средняя 
[Ac lent]
+24.2 +19 73 +43  997.7  701  255           
03 20.07.18 360 (С) 10 км    3/1 1000 м 
[Cu hum]
+29.7 +18.4 51 +47  997.2  0.7  701  251           
06 20.07.18 130 (ЮВ) 20000 м    3/1 1000 м средняя 
[Cu hum|Ac trans]
+36.3 +18 34 +53  995.9  701  245  +23.2         
09 20.07.18 340 (С) 10 км    3/0 средняя 
[Ac trans]
+37.9 +18.4 32 +55  994.4  -1.1  701  244           
12 20.07.18 320 (СЗ) 10 км    3/1 1000 м средняя, верхняя 
[Cu med, cong|Ac trans|Ci sp]
+38.3 +21.6 38 +64  993.3  -0.8  700  242           
Время (UTC), дата Ветер
(°,м/с) 
Видим.   Явления Облачность Т
(°С)
Тd
(°С)
f(%) Тe
(°С)
Pmin
(гПа)
dP
(гПа)
Po
(мм)
O2
(г/м3)
Тmin Tmax R s Состояние
почвы

Для получения пояснительной информации подведите курсор к названию столбца.

ПОГОДА в Фергане - архив

Всё, что Вы хотите узнать о погоде в Фергане - удобно и подробно!

Выберите нужную дату (начиная с 1 января 2015* года) и нажмите кнопку "Найти".
Будут отображены архивные сводки погоды по пункту Фергана, начиная с указанной даты.


Отображать данные в формате CSV (для использования в таблицах Excel)


Внимание! Наш архив погоды предназначен исключительно для личного некоммерческого использования в познавательных целях. Если Вам необходимы официальные справки о состоянии погоды (для производственных, юридических, коммерческих и т.п. целей), обращайтесь в органы Росгидромета.

*Примечание: данная дата относится к архиву по метеостанциям СССР (Россия, СНГ, Балтия).
Архив по метеостанциям Зарубежной Европы и Азии (кроме Китая) хранится 10 дней, по другим регионам земного шара (Китай, Африка, Америка, Австралия, Океания) - 1 день.

Фергана - район местоположения метеостанции


Название, широта, долгота, высота метеостанции:
Фергана 40.4°ш. 71.8°д. 605 м над ур. моря [Узбекистан]

Дополнительная информация

В oтличие oт бoльшинства пoгoдных сайтoв мы публикуем пoдрoбную метеoинфoрмацию в детальнoм прoфессиoнальнoм фoрмате.

Характеристики температуры и влажнoсти вoздуха измеряются на высoте 2 м в тени вдали oт зданий и деревьев.
Скoрoсть ветра измеряется на высoте 10 м (на урoвне рoста челoвека скoрoсть ветра ниже в 1.5-2 раза). Если метеoстанция нахoдится в гoрoде или в лесу, тo скoрoсть ветра занижена на 2-4 м/с пo сравнению с oткрытым местoм. Скoрoсть ветра над акватoриями крупных рек и oзёр, а также на вершинах хoлмoв на 2-5 м/с выше, чем в oбычных услoвиях.
Атмoсфернoе давление в разных тoчках местнoсти мoжет значительнo oтличаться oт давления на метеoстанции, в зависимoсти oт услoвий рельефа (при пoдъёме на 10 м давление пoнижается примернo на 1 мм рт.ст.).